Time,TemperatureF,DewpointF,PressureIn,WindDirection,WindDirectionDegrees,WindSpeedMPH,WindSpeedGustMPH,Humidity,HourlyPrecipIn,Conditions,Clouds,dailyrainin,SoftwareType,DateUTC
2013-01-13 00:03:00,10.9,-16.5,29.00,WNW,301,10.1,10.1,27,0.00,,,0.00,VWS V14.01,2013-01-13 06:03:00,
2013-01-13 00:08:00,10.8,-16.6,29.00,WNW,301,10.1,10.1,27,0.00,,,0.00,VWS V14.01,2013-01-13 06:08:00,
2013-01-13 00:13:00,10.4,-17.0,29.00,NW,317,10.5,10.5,27,0.00,,,0.00,VWS V14.01,2013-01-13 06:13:00,
2013-01-13 00:18:00,10.6,-16.8,29.00,NW,323,7.6,7.6,27,0.00,,,0.00,VWS V14.01,2013-01-13 06:18:00,
2013-01-13 00:23:00,10.6,-16.8,29.00,WNW,299,8.3,8.3,27,0.00,,,0.00,VWS V14.01,2013-01-13 06:23:00,
2013-01-13 00:28:00,10.4,-17.0,29.00,NW,316,10.5,10.5,27,0.00,,,0.00,VWS V14.01,2013-01-13 06:28:00,
2013-01-13 00:33:00,10.4,-17.0,29.00,NW,316,10.5,10.5,27,0.00,,,0.00,VWS V14.01,2013-01-13 06:33:00,
2013-01-13 00:38:00,10.4,-17.0,29.00,WNW,302,15.4,15.4,27,0.00,,,0.00,VWS V14.01,2013-01-13 06:38:00,
2013-01-13 00:43:00,10.4,-17.0,29.00,NW,320,6.7,6.7,27,0.00,,,0.00,VWS V14.01,2013-01-13 06:43:00,
2013-01-13 00:48:00,10.4,-17.0,29.00,NW,309,11.0,11.0,27,0.00,,,0.00,VWS V14.01,2013-01-13 06:48:00,
2013-01-13 00:53:00,10.2,-17.1,29.00,NW,312,8.7,8.7,27,0.00,,,0.00,VWS V14.01,2013-01-13 06:53:00,
2013-01-13 00:58:00,10.2,-17.1,29.00,NW,321,8.1,8.1,27,0.00,,,0.00,VWS V14.01,2013-01-13 06:58:00,
2013-01-13 01:03:00,10.2,-17.1,29.00,NW,313,7.6,7.6,27,0.00,,,0.00,VWS V14.01,2013-01-13 07:03:00,
2013-01-13 01:08:00,10.0,-17.3,29.00,WNW,303,15.4,15.4,27,0.00,,,0.00,VWS V14.01,2013-01-13 07:08:00,
2013-01-13 01:13:00,10.0,-17.3,29.00,NW,322,10.5,10.5,27,0.00,,,0.00,VWS V14.01,2013-01-13 07:13:00,
2013-01-13 01:18:00,10.0,-17.3,29.00,NW,316,11.0,11.0,27,0.00,,,0.00,VWS V14.01,2013-01-13 07:18:00,
2013-01-13 01:23:00,10.0,-17.3,29.00,NW,308,8.7,8.7,27,0.00,,,0.00,VWS V14.01,2013-01-13 07:23:00,
2013-01-13 01:28:00,9.9,-17.4,29.00,NW,308,8.7,8.7,27,0.00,,,0.00,VWS V14.01,2013-01-13 07:28:00,
2013-01-13 01:33:00,9.9,-17.4,29.00,NW,306,15.0,15.0,27,0.00,,,0.00,VWS V14.01,2013-01-13 07:33:00,
2013-01-13 01:38:00,9.9,-17.4,29.00,NW,324,10.1,10.1,27,0.00,,,0.00,VWS V14.01,2013-01-13 07:38:00,
2013-01-13 01:43:00,9.9,-17.4,29.00,NW,324,11.0,11.0,27,0.00,,,0.00,VWS V14.01,2013-01-13 07:43:00,
2013-01-13 01:48:00,10.2,-17.1,29.00,NW,313,7.2,7.2,27,0.00,,,0.00,VWS V14.01,2013-01-13 07:48:00,
2013-01-13 01:53:00,10.2,-17.1,29.00,NW,307,11.0,14.1,27,0.00,,,0.00,VWS V14.01,2013-01-13 07:53:00,
2013-01-13 01:58:00,10.2,-17.1,29.00,NW,321,8.3,8.3,27,0.00,,,0.00,VWS V14.01,2013-01-13 07:58:00,
2013-01-13 02:03:00,10.2,-17.1,29.00,NW,318,6.3,6.3,27,0.00,,,0.00,VWS V14.01,2013-01-13 08:03:00,
2013-01-13 02:08:00,10.2,-17.1,29.00,NW,318,6.3,6.3,27,0.00,,,0.00,VWS V14.01,2013-01-13 08:08:00,
2013-01-13 02:12:00,10.6,-16.8,29.00,NNW,331,8.3,9.2,27,0.00,,,0.00,VWS V14.01,2013-01-13 08:12:00,
2013-01-13 02:17:00,10.6,-16.8,29.00,NNW,331,8.3,8.3,27,0.00,,,0.00,VWS V14.01,2013-01-13 08:17:00,
2013-01-13 02:22:00,10.0,-17.3,29.00,NNW,344,7.6,7.6,27,0.00,,,0.00,VWS V14.01,2013-01-13 08:22:00,
2013-01-13 02:27:00,9.9,-17.4,29.00,NW,322,7.6,7.6,27,0.00,,,0.00,VWS V14.01,2013-01-13 08:27:00,
2013-01-13 02:32:00,9.9,-17.4,29.00,NW,317,8.1,8.1,27,0.00,,,0.00,VWS V14.01,2013-01-13 08:32:00,
2013-01-13 02:37:00,9.7,-17.6,29.00,NNW,327,6.3,6.3,27,0.00,,,0.00,VWS V14.01,2013-01-13 08:37:00,
2013-01-13 02:42:00,9.5,-17.7,29.00,NNW,327,6.3,6.3,27,0.00,,,0.00,VWS V14.01,2013-01-13 08:42:00,
2013-01-13 02:47:00,9.3,-17.9,29.00,NW,318,6.3,6.3,27,0.00,,,0.00,VWS V14.01,2013-01-13 08:47:00,
2013-01-13 02:52:00,9.3,-17.9,29.00,NW,304,9.6,9.6,27,0.00,,,0.00,VWS V14.01,2013-01-13 08:52:00,
2013-01-13 02:57:00,9.3,-17.9,29.03,WNW,294,13.2,13.2,27,0.00,,,0.00,VWS V14.01,2013-01-13 08:57:00,
2013-01-13 03:02:00,9.5,-17.7,29.03,NW,314,8.7,8.7,27,0.00,,,0.00,VWS V14.01,2013-01-13 09:02:00,
2013-01-13 03:07:00,9.5,-17.7,29.03,NW,308,8.3,8.3,27,0.00,,,0.00,VWS V14.01,2013-01-13 09:07:00,
2013-01-13 03:12:00,9.5,-17.7,29.03,NW,308,8.3,8.3,27,0.00,,,0.00,VWS V14.01,2013-01-13 09:12:00,
2013-01-13 03:17:00,9.3,-17.9,29.03,NW,316,12.8,12.8,27,0.00,,,0.00,VWS V14.01,2013-01-13 09:17:00,
2013-01-13 03:22:00,9.3,-17.9,29.03,WNW,293,14.5,14.5,27,0.00,,,0.00,VWS V14.01,2013-01-13 09:22:00,
2013-01-13 03:27:00,9.3,-17.9,29.03,NW,320,6.3,6.3,27,0.00,,,0.00,VWS V14.01,2013-01-13 09:27:00,
2013-01-13 03:32:00,9.5,-17.7,29.03,NW,312,5.4,9.2,27,0.00,,,0.00,VWS V14.01,2013-01-13 09:32:00,
2013-01-13 03:37:00,9.5,-17.7,29.00,NW,312,5.4,5.4,27,0.00,,,0.00,VWS V14.01,2013-01-13 09:37:00,
2013-01-13 03:42:00,9.7,-17.6,29.00,WNW,297,13.2,13.2,27,0.00,,,0.00,VWS V14.01,2013-01-13 09:42:00,
2013-01-13 03:47:00,9.7,-17.6,29.00,WNW,297,13.2,13.2,27,0.00,,,0.00,VWS V14.01,2013-01-13 09:47:00,
2013-01-13 03:52:00,9.7,-17.6,29.00,NW,312,15.0,15.0,27,0.00,,,0.00,VWS V14.01,2013-01-13 09:52:00,
2013-01-13 03:57:00,10.0,-17.3,29.00,NNW,329,12.8,12.8,27,0.00,,,0.00,VWS V14.01,2013-01-13 09:57:00,
2013-01-13 04:02:00,10.0,-17.3,29.00,NW,311,10.5,10.5,27,0.00,,,0.00,VWS V14.01,2013-01-13 10:02:00,
2013-01-13 04:07:00,9.9,-17.4,29.00,WNW,301,11.0,11.0,27,0.00,,,0.00,VWS V14.01,2013-01-13 10:07:00,
2013-01-13 04:12:00,9.7,-17.6,29.00,NW,319,5.8,8.1,27,0.00,,,0.00,VWS V14.01,2013-01-13 10:12:00,
2013-01-13 04:17:00,9.7,-17.6,29.00,NNW,328,8.1,8.1,27,0.00,,,0.00,VWS V14.01,2013-01-13 10:17:00,
2013-01-13 04:22:00,9.7,-17.6,29.00,NW,318,8.1,8.1,27,0.00,,,0.00,VWS V14.01,2013-01-13 10:22:00,
2013-01-13 04:27:00,9.7,-17.6,29.00,NW,326,8.1,8.1,27,0.00,,,0.00,VWS V14.01,2013-01-13 10:27:00,
2013-01-13 04:32:00,10.0,-17.3,29.00,NW,307,8.1,8.1,27,0.00,,,0.00,VWS V14.01,2013-01-13 10:32:00,
2013-01-13 04:37:00,10.0,-17.3,29.00,NW,304,12.3,12.3,27,0.00,,,0.00,VWS V14.01,2013-01-13 10:37:00,
2013-01-13 04:42:00,10.0,-17.3,29.00,NW,311,5.4,5.4,27,0.00,,,0.00,VWS V14.01,2013-01-13 10:42:00,
2013-01-13 04:47:00,10.0,-17.3,29.00,NW,317,5.4,5.4,27,0.00,,,0.00,VWS V14.01,2013-01-13 10:47:00,
2013-01-13 04:52:00,10.0,-17.3,29.00,NW,315,6.3,10.1,27,0.00,,,0.00,VWS V14.01,2013-01-13 10:52:00,
2013-01-13 04:57:00,10.0,-17.3,29.03,NNW,329,8.1,8.1,27,0.00,,,0.00,VWS V14.01,2013-01-13 10:57:00,
2013-01-13 05:02:00,10.0,-17.3,29.03,NNW,330,5.8,5.8,27,0.00,,,0.00,VWS V14.01,2013-01-13 11:02:00,
2013-01-13 05:07:00,9.5,-17.7,29.03,NW,321,5.8,5.8,27,0.00,,,0.00,VWS V14.01,2013-01-13 11:07:00,
2013-01-13 05:12:00,9.5,-17.7,29.03,NNW,328,5.8,5.8,27,0.00,,,0.00,VWS V14.01,2013-01-13 11:12:00,
2013-01-13 05:17:00,9.5,-17.7,29.03,NW,325,8.1,8.1,27,0.00,,,0.00,VWS V14.01,2013-01-13 11:17:00,
2013-01-13 05:22:00,8.8,-18.4,29.03,NW,318,9.2,9.2,27,0.00,,,0.00,VWS V14.01,2013-01-13 11:22:00,
2013-01-13 05:27:00,8.8,-18.4,29.03,NW,318,9.2,9.2,27,0.00,,,0.00,VWS V14.01,2013-01-13 11:27:00,
2013-01-13 05:32:00,8.6,-18.5,29.03,NW,313,5.4,5.4,27,0.00,,,0.00,VWS V14.01,2013-01-13 11:32:00,
2013-01-13 05:37:00,8.6,-18.5,29.03,NW,320,10.5,10.5,27,0.00,,,0.00,VWS V14.01,2013-01-13 11:37:00,
2013-01-13 05:42:00,8.4,-18.7,29.03,WNW,299,7.2,7.2,27,0.00,,,0.00,VWS V14.01,2013-01-13 11:42:00,
2013-01-13 05:47:00,8.4,-18.7,29.03,NW,322,5.4,5.4,27,0.00,,,0.00,VWS V14.01,2013-01-13 11:47:00,
2013-01-13 05:52:00,8.4,-18.7,29.03,NW,324,4.0,4.0,27,0.00,,,0.00,VWS V14.01,2013-01-13 11:52:00,
2013-01-13 05:57:00,8.1,-19.0,29.03,NW,321,6.3,6.3,27,0.00,,,0.00,VWS V14.01,2013-01-13 11:57:00,
2013-01-13 06:02:00,8.1,-19.0,29.03,NW,324,3.6,5.8,27,0.00,,,0.00,VWS V14.01,2013-01-13 12:02:00,
2013-01-13 06:07:00,8.1,-19.0,29.03,NW,315,5.8,5.8,27,0.00,,,0.00,VWS V14.01,2013-01-13 12:07:00,
2013-01-13 06:12:00,8.1,-19.0,29.03,NNW,334,5.8,8.1,27,0.00,,,0.00,VWS V14.01,2013-01-13 12:12:00,
2013-01-13 06:17:00,8.1,-19.0,29.03,NNW,334,5.8,5.8,27,0.00,,,0.00,VWS V14.01,2013-01-13 12:17:00,
2013-01-13 06:22:00,8.1,-19.0,29.03,NW,319,5.4,5.4,27,0.00,,,0.00,VWS V14.01,2013-01-13 12:22:00,
2013-01-13 06:27:00,7.9,-19.1,29.03,WNW,299,5.4,5.4,27,0.00,,,0.00,VWS V14.01,2013-01-13 12:27:00,
2013-01-13 06:32:00,7.7,-19.3,29.03,NW,310,4.0,4.0,27,0.00,,,0.00,VWS V14.01,2013-01-13 12:32:00,
2013-01-13 06:37:00,7.7,-19.3,29.06,NW,311,3.6,3.6,27,0.00,,,0.00,VWS V14.01,2013-01-13 12:37:00,
2013-01-13 06:42:00,7.5,-19.5,29.06,NW,311,3.6,3.6,27,0.00,,,0.00,VWS V14.01,2013-01-13 12:42:00,
2013-01-13 06:47:00,7.5,-19.5,29.06,NW,307,4.0,4.0,27,0.00,,,0.00,VWS V14.01,2013-01-13 12:47:00,
2013-01-13 06:52:00,7.3,-19.6,29.06,NW,308,5.4,5.4,27,0.00,,,0.00,VWS V14.01,2013-01-13 12:52:00,
2013-01-13 06:57:00,7.3,-19.6,29.06,NW,307,4.0,4.0,27,0.00,,,0.00,VWS V14.01,2013-01-13 12:57:00,
2013-01-13 07:02:00,7.3,-19.6,29.06,NW,312,0.0,0.0,27,0.00,,,0.00,VWS V14.01,2013-01-13 13:02:00,
2013-01-13 07:07:00,7.2,-19.8,29.06,NW,308,4.0,4.0,27,0.00,,,0.00,VWS V14.01,2013-01-13 13:07:00,
2013-01-13 07:12:00,7.2,-19.8,29.06,NW,307,3.6,3.6,27,0.00,,,0.00,VWS V14.01,2013-01-13 13:12:00,
2013-01-13 07:17:00,7.3,-19.6,29.06,NW,307,4.0,4.0,27,0.00,,,0.00,VWS V14.01,2013-01-13 13:17:00,
2013-01-13 07:22:00,7.3,-19.6,29.06,NW,308,3.1,3.1,27,0.00,,,0.00,VWS V14.01,2013-01-13 13:22:00,
2013-01-13 07:27:00,7.3,-19.6,29.06,NW,308,3.1,3.1,27,0.00,,,0.00,VWS V14.01,2013-01-13 13:27:00,
2013-01-13 07:32:00,7.3,-19.6,29.06,NW,305,5.4,5.4,27,0.00,,,0.00,VWS V14.01,2013-01-13 13:32:00,
2013-01-13 07:37:00,7.3,-19.6,29.06,NW,305,5.4,5.4,27,0.00,,,0.00,VWS V14.01,2013-01-13 13:37:00,
2013-01-13 07:42:00,7.3,-19.6,29.06,NW,305,5.8,5.8,27,0.00,,,0.00,VWS V14.01,2013-01-13 13:42:00,
2013-01-13 07:47:00,7.3,-19.6,29.06,NW,304,5.8,5.8,27,0.00,,,0.00,VWS V14.01,2013-01-13 13:47:00,
2013-01-13 07:52:00,7.3,-19.6,29.06,WNW,302,3.6,3.6,27,0.00,,,0.00,VWS V14.01,2013-01-13 13:52:00,
2013-01-13 07:57:00,7.3,-19.6,29.06,WNW,298,5.4,5.4,27,0.00,,,0.00,VWS V14.01,2013-01-13 13:57:00,
2013-01-13 08:02:00,7.5,-19.5,29.06,NW,313,6.3,6.3,27,0.00,,,0.00,VWS V14.01,2013-01-13 14:02:00,
2013-01-13 08:07:00,7.7,-19.3,29.06,WNW,292,4.9,4.9,27,0.00,,,0.00,VWS V14.01,2013-01-13 14:07:00,
2013-01-13 08:12:00,7.7,-19.3,29.09,WNW,291,2.7,2.7,27,0.00,,,0.00,VWS V14.01,2013-01-13 14:12:00,
2013-01-13 08:17:00,7.9,-19.1,29.09,WNW,298,5.4,6.3,27,0.00,,,0.00,VWS V14.01,2013-01-13 14:17:00,
2013-01-13 08:22:00,8.1,-19.0,29.09,WNW,300,5.8,5.8,27,0.00,,,0.00,VWS V14.01,2013-01-13 14:22:00,
2013-01-13 08:27:00,8.2,-18.8,29.09,WNW,300,8.7,8.7,27,0.00,,,0.00,VWS V14.01,2013-01-13 14:27:00,
2013-01-13 08:32:00,8.4,-18.7,29.09,WNW,300,8.7,8.7,27,0.00,,,0.00,VWS V14.01,2013-01-13 14:32:00,
2013-01-13 08:37:00,8.4,-18.7,29.09,WNW,301,8.7,8.7,27,0.00,,,0.00,VWS V14.01,2013-01-13 14:37:00,
2013-01-13 08:42:00,8.6,-18.5,29.09,WNW,303,6.3,6.3,27,0.00,,,0.00,VWS V14.01,2013-01-13 14:42:00,
2013-01-13 08:47:00,8.6,-18.5,29.09,NW,308,5.4,5.4,27,0.00,,,0.00,VWS V14.01,2013-01-13 14:47:00,
2013-01-13 08:52:00,9.1,-18.0,29.09,WNW,301,4.0,8.3,27,0.00,,,0.00,VWS V14.01,2013-01-13 14:52:00,
2013-01-13 08:57:00,9.1,-18.0,29.09,NW,306,8.1,8.1,27,0.00,,,0.00,VWS V14.01,2013-01-13 14:57:00,
2013-01-13 09:02:00,9.5,-17.7,29.09,NW,305,10.5,10.5,27,0.00,,,0.00,VWS V14.01,2013-01-13 15:02:00,
2013-01-13 09:07:00,9.5,-17.7,29.09,NW,308,8.7,8.7,27,0.00,,,0.00,VWS V14.01,2013-01-13 15:07:00,
2013-01-13 09:12:00,9.7,-17.6,29.09,WNW,295,6.3,6.3,27,0.00,,,0.00,VWS V14.01,2013-01-13 15:12:00,
2013-01-13 09:17:00,10.0,-17.3,29.09,NW,304,8.1,8.1,27,0.00,,,0.00,VWS V14.01,2013-01-13 15:17:00,
2013-01-13 09:22:00,10.0,-17.3,29.09,WNW,293,11.0,11.0,27,0.00,,,0.00,VWS V14.01,2013-01-13 15:22:00,
2013-01-13 09:27:00,10.4,-17.0,29.09,NW,313,5.8,5.8,27,0.00,,,0.00,VWS V14.01,2013-01-13 15:27:00,
2013-01-13 09:32:00,10.6,-16.8,29.09,WNW,303,12.8,12.8,27,0.00,,,0.00,VWS V14.01,2013-01-13 15:32:00,
2013-01-13 09:37:00,10.8,-16.6,29.09,WNW,303,12.8,12.8,27,0.00,,,0.00,VWS V14.01,2013-01-13 15:37:00,
2013-01-13 09:42:00,10.9,-16.5,29.09,WNW,297,8.7,11.0,27,0.00,,,0.00,VWS V14.01,2013-01-13 15:42:00,
2013-01-13 09:47:00,10.9,-16.5,29.09,NW,307,10.1,10.1,27,0.00,,,0.00,VWS V14.01,2013-01-13 15:47:00,
2013-01-13 09:52:00,11.5,-16.0,29.09,WNW,294,4.9,4.9,27,0.00,,,0.00,VWS V14.01,2013-01-13 15:52:00,
2013-01-13 09:57:00,12.0,-15.5,29.09,West,271,4.0,4.0,27,0.00,,,0.00,VWS V14.01,2013-01-13 15:57:00,
2013-01-13 10:02:00,12.0,-15.5,29.09,WNW,296,7.6,12.3,27,0.00,,,0.00,VWS V14.01,2013-01-13 16:02:00,
2013-01-13 10:07:00,12.0,-15.5,29.09,WNW,302,8.3,8.7,27,0.00,,,0.00,VWS V14.01,2013-01-13 16:07:00,
2013-01-13 10:12:00,12.2,-15.4,29.09,West,263,5.4,8.3,27,0.00,,,0.00,VWS V14.01,2013-01-13 16:12:00,
2013-01-13 10:17:00,12.6,-15.1,29.09,WNW,291,10.1,10.1,27,0.00,,,0.00,VWS V14.01,2013-01-13 16:17:00,
2013-01-13 10:22:00,12.6,-15.1,29.09,WNW,299,12.8,12.8,27,0.00,,,0.00,VWS V14.01,2013-01-13 16:22:00,
2013-01-13 10:27:00,12.9,-14.8,29.09,NW,304,6.3,6.3,27,0.00,,,0.00,VWS V14.01,2013-01-13 16:27:00,
2013-01-13 10:32:00,13.5,-14.3,29.09,NNW,335,10.5,10.5,27,0.00,,,0.00,VWS V14.01,2013-01-13 16:32:00,
2013-01-13 10:37:00,13.5,-14.3,29.09,WNW,294,15.4,15.4,27,0.00,,,0.00,VWS V14.01,2013-01-13 16:37:00,
2013-01-13 10:42:00,13.5,-14.3,29.09,West,275,8.7,8.7,27,0.00,,,0.00,VWS V14.01,2013-01-13 16:42:00,
2013-01-13 10:47:00,14.4,-14.2,29.09,NW,325,9.2,10.1,26,0.00,,,0.00,VWS V14.01,2013-01-13 16:47:00,
2013-01-13 10:52:00,14.5,-14.1,29.09,NW,306,8.7,8.7,26,0.00,,,0.00,VWS V14.01,2013-01-13 16:52:00,
2013-01-13 10:57:00,14.9,-13.8,29.09,WNW,299,10.5,10.5,26,0.00,,,0.00,VWS V14.01,2013-01-13 16:57:00,
2013-01-13 11:02:00,14.5,-14.1,29.09,WNW,303,11.0,11.0,26,0.00,,,0.00,VWS V14.01,2013-01-13 17:02:00,
2013-01-13 11:07:00,14.5,-14.1,29.09,NW,306,8.1,8.1,26,0.00,,,0.00,VWS V14.01,2013-01-13 17:07:00,
2013-01-13 11:12:00,14.5,-14.1,29.06,NW,311,11.0,11.0,26,0.00,,,0.00,VWS V14.01,2013-01-13 17:12:00,
2013-01-13 11:17:00,14.9,-13.8,29.06,West,279,10.5,10.5,26,0.00,,,0.00,VWS V14.01,2013-01-13 17:17:00,
2013-01-13 11:22:00,15.6,-13.1,29.06,WNW,293,10.5,10.5,26,0.00,,,0.00,VWS V14.01,2013-01-13 17:22:00,
2013-01-13 11:27:00,15.4,-13.3,29.06,WNW,287,6.3,10.5,26,0.00,,,0.00,VWS V14.01,2013-01-13 17:27:00,
2013-01-13 11:32:00,15.6,-13.1,29.09,NW,314,5.4,8.3,26,0.00,,,0.00,VWS V14.01,2013-01-13 17:32:00,
2013-01-13 11:37:00,16.7,-12.2,29.09,WNW,287,8.7,8.7,26,0.00,,,0.00,VWS V14.01,2013-01-13 17:37:00,
2013-01-13 11:42:00,16.7,-12.2,29.09,NW,309,5.4,5.4,26,0.00,,,0.00,VWS V14.01,2013-01-13 17:42:00,
2013-01-13 11:47:00,16.7,-12.2,29.09,WNW,294,8.3,8.3,26,0.00,,,0.00,VWS V14.01,2013-01-13 17:47:00,
2013-01-13 11:52:00,17.4,-11.6,29.09,WNW,303,8.7,8.7,26,0.00,,,0.00,VWS V14.01,2013-01-13 17:52:00,
2013-01-13 11:57:00,18.1,-11.8,29.09,West,273,8.3,8.3,25,0.00,,,0.00,VWS V14.01,2013-01-13 17:57:00,
2013-01-13 12:02:00,17.8,-12.1,29.09,West,279,8.7,8.7,25,0.00,,,0.00,VWS V14.01,2013-01-13 18:02:00,
2013-01-13 12:07:00,18.3,-11.6,29.09,NW,305,10.1,10.5,25,0.00,,,0.00,VWS V14.01,2013-01-13 18:07:00,
2013-01-13 12:12:00,18.3,-11.6,29.09,WNW,287,8.1,8.1,25,0.00,,,0.00,VWS V14.01,2013-01-13 18:12:00,
2013-01-13 12:17:00,19.2,-10.8,29.09,West,262,5.8,5.8,25,0.00,,,0.00,VWS V14.01,2013-01-13 18:17:00,
2013-01-13 12:22:00,19.2,-10.8,29.09,West,276,5.8,5.8,25,0.00,,,0.00,VWS V14.01,2013-01-13 18:22:00,
2013-01-13 12:27:00,19.0,-11.0,29.06,NW,315,11.0,12.8,25,0.00,,,0.00,VWS V14.01,2013-01-13 18:27:00,
2013-01-13 12:32:00,19.0,-11.0,29.06,West,271,11.0,11.0,25,0.00,,,0.00,VWS V14.01,2013-01-13 18:32:00,
2013-01-13 12:37:00,19.4,-10.7,29.06,West,272,8.7,8.7,25,0.00,,,0.00,VWS V14.01,2013-01-13 18:37:00,
2013-01-13 12:42:00,19.6,-10.5,29.06,NW,319,6.3,13.2,25,0.00,,,0.00,VWS V14.01,2013-01-13 18:42:00,
2013-01-13 12:47:00,19.8,-10.4,29.06,West,272,5.4,8.1,25,0.00,,,0.00,VWS V14.01,2013-01-13 18:47:00,
2013-01-13 12:52:00,20.3,-9.9,29.06,WNW,302,8.3,8.3,25,0.00,,,0.00,VWS V14.01,2013-01-13 18:52:00,
2013-01-13 12:57:00,19.8,-10.4,29.06,NW,311,13.2,13.2,25,0.00,,,0.00,VWS V14.01,2013-01-13 18:57:00,
2013-01-13 13:02:00,19.9,-10.2,29.06,NW,314,5.8,5.8,25,0.00,,,0.00,VWS V14.01,2013-01-13 19:02:00,
2013-01-13 13:07:00,20.8,-9.4,29.06,NW,308,10.1,10.1,25,0.00,,,0.00,VWS V14.01,2013-01-13 19:07:00,
2013-01-13 13:12:00,20.8,-9.4,29.06,WNW,293,10.5,10.5,25,0.00,,,0.00,VWS V14.01,2013-01-13 19:12:00,
2013-01-13 13:17:00,20.8,-12.0,29.06,WNW,287,9.6,10.5,22,0.00,,,0.00,VWS V14.01,2013-01-13 19:17:00,
2013-01-13 13:22:00,21.2,-11.7,29.06,WNW,303,5.8,5.8,22,0.00,,,0.00,VWS V14.01,2013-01-13 19:22:00,
2013-01-13 13:26:00,21.6,-11.4,29.06,NW,305,12.8,12.8,22,0.00,,,0.00,VWS V14.01,2013-01-13 19:26:00,
2013-01-13 13:31:00,21.2,-11.7,29.06,WNW,297,11.9,11.9,22,0.00,,,0.00,VWS V14.01,2013-01-13 19:31:00,
2013-01-13 13:36:00,21.6,-11.4,29.06,West,271,8.1,8.1,22,0.00,,,0.00,VWS V14.01,2013-01-13 19:36:00,
2013-01-13 13:41:00,21.0,-11.9,29.06,NW,305,13.2,15.4,22,0.00,,,0.00,VWS V14.01,2013-01-13 19:41:00,
2013-01-13 13:46:00,21.2,-11.7,29.06,WNW,294,12.8,12.8,22,0.00,,,0.00,VWS V14.01,2013-01-13 19:46:00,
2013-01-13 13:51:00,21.6,-11.4,29.06,NW,316,12.3,12.3,22,0.00,,,0.00,VWS V14.01,2013-01-13 19:51:00,
2013-01-13 13:56:00,21.7,-11.2,29.06,West,280,8.1,8.1,22,0.00,,,0.00,VWS V14.01,2013-01-13 19:56:00,
2013-01-13 14:01:00,22.1,-10.9,29.06,West,275,7.2,7.2,22,0.00,,,0.00,VWS V14.01,2013-01-13 20:01:00,
2013-01-13 14:06:00,22.1,-10.9,29.06,West,277,8.1,8.1,22,0.00,,,0.00,VWS V14.01,2013-01-13 20:06:00,
2013-01-13 14:11:00,22.5,-10.6,29.06,West,269,5.4,5.4,22,0.00,,,0.00,VWS V14.01,2013-01-13 20:11:00,
2013-01-13 14:16:00,22.8,-7.7,29.06,WNW,296,8.7,8.7,25,0.00,,,0.00,VWS V14.01,2013-01-13 20:16:00,
2013-01-13 14:21:00,22.8,-10.3,29.06,NW,314,7.6,7.6,22,0.00,,,0.00,VWS V14.01,2013-01-13 20:21:00,
2013-01-13 14:26:00,22.8,-10.3,29.06,WNW,296,10.1,10.1,22,0.00,,,0.00,VWS V14.01,2013-01-13 20:26:00,
2013-01-13 14:31:00,23.0,-7.6,29.06,West,266,7.6,7.6,25,0.00,,,0.00,VWS V14.01,2013-01-13 20:31:00,
2013-01-13 14:36:00,23.4,-9.9,29.06,WSW,250,6.3,6.3,22,0.00,,,0.00,VWS V14.01,2013-01-13 20:36:00,
2013-01-13 14:41:00,23.5,-9.7,29.06,NW,306,8.3,8.3,22,0.00,,,0.00,VWS V14.01,2013-01-13 20:41:00,
2013-01-13 14:46:00,23.5,-9.7,29.06,WNW,300,6.3,6.3,22,0.00,,,0.00,VWS V14.01,2013-01-13 20:46:00,
2013-01-13 14:51:00,23.7,-7.8,29.06,WSW,248,8.3,9.6,24,0.00,,,0.00,VWS V14.01,2013-01-13 20:51:00,
2013-01-13 14:56:00,24.1,-7.5,29.06,WNW,282,8.7,8.7,24,0.00,,,0.00,VWS V14.01,2013-01-13 20:56:00,
2013-01-13 15:01:00,23.7,-9.6,29.06,WNW,284,7.6,8.7,22,0.00,,,0.00,VWS V14.01,2013-01-13 21:01:00,
2013-01-13 15:06:00,23.5,-9.7,29.09,WNW,300,10.5,10.5,22,0.00,,,0.00,VWS V14.01,2013-01-13 21:06:00,
2013-01-13 15:11:00,22.8,-10.3,29.09,West,270,10.1,10.1,22,0.00,,,0.00,VWS V14.01,2013-01-13 21:11:00,
2013-01-13 15:16:00,23.7,-9.6,29.09,NW,326,8.3,8.3,22,0.00,,,0.00,VWS V14.01,2013-01-13 21:16:00,
2013-01-13 15:21:00,23.5,-9.7,29.09,West,279,5.8,5.8,22,0.00,,,0.00,VWS V14.01,2013-01-13 21:21:00,
2013-01-13 15:26:00,23.0,-10.2,29.09,WNW,295,8.7,11.0,22,0.00,,,0.00,VWS V14.01,2013-01-13 21:26:00,
2013-01-13 15:31:00,23.4,-9.9,29.09,West,267,5.8,5.8,22,0.00,,,0.00,VWS V14.01,2013-01-13 21:31:00,
2013-01-13 15:36:00,23.5,-9.7,29.09,NW,314,5.8,5.8,22,0.00,,,0.00,VWS V14.01,2013-01-13 21:36:00,
2013-01-13 15:41:00,23.4,-9.9,29.09,West,276,8.7,8.7,22,0.00,,,0.00,VWS V14.01,2013-01-13 21:41:00,
2013-01-13 15:46:00,23.0,-10.2,29.09,WNW,291,6.3,6.3,22,0.00,,,0.00,VWS V14.01,2013-01-13 21:46:00,
2013-01-13 15:51:00,22.8,-10.3,29.09,WNW,297,10.5,10.5,22,0.00,,,0.00,VWS V14.01,2013-01-13 21:51:00,
2013-01-13 15:56:00,22.3,-10.8,29.09,WNW,303,11.0,11.0,22,0.00,,,0.00,VWS V14.01,2013-01-13 21:56:00,
2013-01-13 16:01:00,22.5,-10.6,29.09,NW,313,8.1,8.1,22,0.00,,,0.00,VWS V14.01,2013-01-13 22:01:00,
2013-01-13 16:06:00,22.5,-10.6,29.09,WNW,290,8.1,8.1,22,0.00,,,0.00,VWS V14.01,2013-01-13 22:06:00,
2013-01-13 16:11:00,22.5,-10.6,29.09,WNW,302,3.6,3.6,22,0.00,,,0.00,VWS V14.01,2013-01-13 22:11:00,
2013-01-13 16:16:00,22.6,-10.5,29.09,WNW,287,7.6,7.6,22,0.00,,,0.00,VWS V14.01,2013-01-13 22:16:00,
2013-01-13 16:21:00,22.6,-10.5,29.09,West,275,8.1,8.1,22,0.00,,,0.00,VWS V14.01,2013-01-13 22:21:00,
2013-01-13 16:26:00,22.1,-10.9,29.09,WNW,291,12.8,12.8,22,0.00,,,0.00,VWS V14.01,2013-01-13 22:26:00,
2013-01-13 16:31:00,22.1,-10.9,29.09,WNW,296,11.0,11.0,22,0.00,,,0.00,VWS V14.01,2013-01-13 22:31:00,
2013-01-13 16:36:00,21.7,-11.2,29.09,WNW,286,3.6,3.6,22,0.00,,,0.00,VWS V14.01,2013-01-13 22:36:00,
2013-01-13 16:41:00,21.7,-11.2,29.09,WNW,289,4.5,4.5,22,0.00,,,0.00,VWS V14.01,2013-01-13 22:41:00,
2013-01-13 16:46:00,21.4,-11.5,29.09,WNW,293,8.7,8.7,22,0.00,,,0.00,VWS V14.01,2013-01-13 22:46:00,
2013-01-13 16:51:00,21.0,-11.9,29.09,WNW,292,5.8,5.8,22,0.00,,,0.00,VWS V14.01,2013-01-13 22:51:00,
2013-01-13 16:56:00,20.8,-12.0,29.12,WNW,292,5.8,5.8,22,0.00,,,0.00,VWS V14.01,2013-01-13 22:56:00,
2013-01-13 17:01:00,20.7,-12.2,29.12,WNW,300,8.3,8.3,22,0.00,,,0.00,VWS V14.01,2013-01-13 23:01:00,
2013-01-13 17:06:00,20.3,-12.5,29.12,WNW,287,7.2,7.2,22,0.00,,,0.00,VWS V14.01,2013-01-13 23:06:00,
2013-01-13 17:11:00,19.6,-13.1,29.12,West,273,5.4,7.2,22,0.00,,,0.00,VWS V14.01,2013-01-13 23:11:00,
2013-01-13 17:16:00,19.2,-12.5,29.12,WNW,284,3.1,3.1,23,0.00,,,0.00,VWS V14.01,2013-01-13 23:16:00,
2013-01-13 17:21:00,19.0,-12.6,29.12,WNW,291,5.4,5.4,23,0.00,,,0.00,VWS V14.01,2013-01-13 23:21:00,
2013-01-13 17:26:00,18.5,-13.1,29.12,West,277,6.3,6.3,23,0.00,,,0.00,VWS V14.01,2013-01-13 23:26:00,
2013-01-13 17:31:00,18.3,-13.3,29.12,WNW,296,6.3,6.3,23,0.00,,,0.00,VWS V14.01,2013-01-13 23:31:00,
2013-01-13 17:36:00,18.0,-13.6,29.12,WNW,295,5.4,5.4,23,0.00,,,0.00,VWS V14.01,2013-01-13 23:36:00,
2013-01-13 17:41:00,17.8,-13.7,29.12,WNW,292,6.3,6.3,23,0.00,,,0.00,VWS V14.01,2013-01-13 23:41:00,
2013-01-13 17:46:00,17.8,-13.7,29.12,WNW,295,5.8,7.2,23,0.00,,,0.00,VWS V14.01,2013-01-13 23:46:00,
2013-01-13 17:51:00,17.6,-13.9,29.12,WNW,290,5.8,5.8,23,0.00,,,0.00,VWS V14.01,2013-01-13 23:51:00,
2013-01-13 17:56:00,17.4,-14.0,29.12,WNW,286,4.9,4.9,23,0.00,,,0.00,VWS V14.01,2013-01-13 23:56:00,
2013-01-13 18:01:00,17.1,-14.3,29.12,WNW,285,0.0,0.0,23,0.00,,,0.00,VWS V14.01,2013-01-14 00:01:00,
2013-01-13 18:06:00,16.9,-14.5,29.12,WNW,284,2.7,2.7,23,0.00,,,0.00,VWS V14.01,2013-01-14 00:06:00,
2013-01-13 18:11:00,16.5,-14.8,29.12,WNW,284,2.2,2.2,23,0.00,,,0.00,VWS V14.01,2013-01-14 00:11:00,
2013-01-13 18:16:00,16.0,-15.3,29.12,WNW,284,2.7,2.7,23,0.00,,,0.00,VWS V14.01,2013-01-14 00:16:00,
2013-01-13 18:21:00,15.8,-13.0,29.12,WNW,285,4.9,4.9,26,0.00,,,0.00,VWS V14.01,2013-01-14 00:21:00,
2013-01-13 18:26:00,15.8,-13.0,29.12,WNW,285,2.7,2.7,26,0.00,,,0.00,VWS V14.01,2013-01-14 00:26:00,
2013-01-13 18:31:00,15.8,-13.0,29.12,WNW,284,0.0,0.0,26,0.00,,,0.00,VWS V14.01,2013-01-14 00:31:00,
2013-01-13 18:36:00,15.4,-13.3,29.12,WNW,285,3.6,3.6,26,0.00,,,0.00,VWS V14.01,2013-01-14 00:36:00,
2013-01-13 18:41:00,15.4,-13.3,29.12,WNW,285,4.0,4.0,26,0.00,,,0.00,VWS V14.01,2013-01-14 00:41:00,
2013-01-13 18:46:00,15.4,-13.3,29.12,WNW,285,0.0,0.0,26,0.00,,,0.00,VWS V14.01,2013-01-14 00:46:00,
2013-01-13 18:51:00,15.1,-13.6,29.12,WNW,285,3.6,3.6,26,0.00,,,0.00,VWS V14.01,2013-01-14 00:51:00,
2013-01-13 18:56:00,14.5,-14.1,29.12,WNW,285,0.0,0.0,26,0.00,,,0.00,VWS V14.01,2013-01-14 00:56:00,
2013-01-13 19:01:00,13.8,-14.0,29.12,WNW,285,0.0,0.0,27,0.00,,,0.00,VWS V14.01,2013-01-14 01:01:00,
2013-01-13 19:06:00,13.5,-14.3,29.12,WNW,285,0.0,0.0,27,0.00,,,0.00,VWS V14.01,2013-01-14 01:06:00,
2013-01-13 19:11:00,12.6,-15.1,29.12,WNW,285,0.0,0.0,27,0.00,,,0.00,VWS V14.01,2013-01-14 01:11:00,
2013-01-13 19:16:00,12.2,-15.4,29.12,WNW,285,0.0,0.0,27,0.00,,,0.00,VWS V14.01,2013-01-14 01:16:00,
2013-01-13 19:21:00,11.8,-15.7,29.12,WNW,285,0.0,0.0,27,0.00,,,0.00,VWS V14.01,2013-01-14 01:21:00,
2013-01-13 19:26:00,11.7,-15.9,29.12,WNW,285,0.0,0.0,27,0.00,,,0.00,VWS V14.01,2013-01-14 01:26:00,
2013-01-13 19:31:00,11.3,-16.2,29.15,WNW,285,0.0,0.0,27,0.00,,,0.00,VWS V14.01,2013-01-14 01:31:00,
2013-01-13 19:36:00,11.1,-16.3,29.15,WNW,285,0.0,0.0,27,0.00,,,0.00,VWS V14.01,2013-01-14 01:36:00,
2013-01-13 19:41:00,11.1,-16.3,29.15,WNW,285,0.0,0.0,27,0.00,,,0.00,VWS V14.01,2013-01-14 01:41:00,
2013-01-13 19:46:00,11.3,-16.2,29.15,WNW,285,0.0,0.0,27,0.00,,,0.00,VWS V14.01,2013-01-14 01:46:00,
2013-01-13 19:51:00,11.1,-16.3,29.15,WNW,285,0.0,0.0,27,0.00,,,0.00,VWS V14.01,2013-01-14 01:51:00,
2013-01-13 19:56:00,10.9,-16.5,29.15,WNW,285,0.0,0.0,27,0.00,,,0.00,VWS V14.01,2013-01-14 01:56:00,
2013-01-13 20:01:00,10.2,-17.1,29.15,WNW,285,0.0,0.0,27,0.00,,,0.00,VWS V14.01,2013-01-14 02:01:00,
2013-01-13 20:06:00,10.2,-17.1,29.15,WNW,285,0.0,0.0,27,0.00,,,0.00,VWS V14.01,2013-01-14 02:06:00,
2013-01-13 20:11:00,10.9,-16.5,29.15,WNW,285,0.0,0.0,27,0.00,,,0.00,VWS V14.01,2013-01-14 02:11:00,
2013-01-13 20:16:00,11.1,-16.3,29.15,WNW,285,0.0,0.0,27,0.00,,,0.00,VWS V14.01,2013-01-14 02:16:00,
2013-01-13 20:21:00,11.7,-15.9,29.15,WNW,285,0.0,0.0,27,0.00,,,0.00,VWS V14.01,2013-01-14 02:21:00,
2013-01-13 20:26:00,11.7,-15.9,29.15,WNW,285,0.0,0.0,27,0.00,,,0.00,VWS V14.01,2013-01-14 02:26:00,
2013-01-13 20:31:00,10.9,-16.5,29.15,WNW,285,0.0,0.0,27,0.00,,,0.00,VWS V14.01,2013-01-14 02:31:00,
2013-01-13 20:36:00,10.2,-17.1,29.15,WNW,285,0.0,0.0,27,0.00,,,0.00,VWS V14.01,2013-01-14 02:36:00,
2013-01-13 20:41:00,10.2,-17.1,29.15,WNW,285,2.7,2.7,27,0.00,,,0.00,VWS V14.01,2013-01-14 02:41:00,
2013-01-13 20:46:00,10.8,-16.6,29.15,WNW,285,2.7,2.7,27,0.00,,,0.00,VWS V14.01,2013-01-14 02:46:00,
2013-01-13 20:51:00,10.8,-16.6,29.15,WNW,285,0.0,3.1,27,0.00,,,0.00,VWS V14.01,2013-01-14 02:51:00,
2013-01-13 20:56:00,11.3,-16.2,29.15,WNW,285,0.0,0.0,27,0.00,,,0.00,VWS V14.01,2013-01-14 02:56:00,
2013-01-13 21:01:00,11.3,-16.2,29.15,WNW,285,0.0,0.0,27,0.00,,,0.00,VWS V14.01,2013-01-14 03:01:00,
2013-01-13 21:06:00,11.7,-15.9,29.15,WNW,285,0.0,0.0,27,0.00,,,0.00,VWS V14.01,2013-01-14 03:06:00,
2013-01-13 21:11:00,11.7,-15.9,29.15,WNW,285,3.1,3.1,27,0.00,,,0.00,VWS V14.01,2013-01-14 03:11:00,
2013-01-13 21:16:00,11.8,-15.7,29.15,WNW,285,5.8,5.8,27,0.00,,,0.00,VWS V14.01,2013-01-14 03:16:00,
2013-01-13 21:21:00,12.0,-15.5,29.15,WNW,286,4.5,4.5,27,0.00,,,0.00,VWS V14.01,2013-01-14 03:21:00,
2013-01-13 21:26:00,12.0,-15.5,29.15,WNW,294,4.0,4.0,27,0.00,,,0.00,VWS V14.01,2013-01-14 03:26:00,
2013-01-13 21:31:00,12.2,-15.4,29.15,WNW,294,4.5,5.4,27,0.00,,,0.00,VWS V14.01,2013-01-14 03:31:00,
2013-01-13 21:36:00,12.2,-15.4,29.15,WNW,297,4.9,4.9,27,0.00,,,0.00,VWS V14.01,2013-01-14 03:36:00,
2013-01-13 21:41:00,12.2,-15.4,29.15,WNW,297,0.0,4.0,27,0.00,,,0.00,VWS V14.01,2013-01-14 03:41:00,
2013-01-13 21:46:00,12.0,-15.5,29.15,WNW,297,2.7,2.7,27,0.00,,,0.00,VWS V14.01,2013-01-14 03:46:00,
2013-01-13 21:51:00,11.5,-16.0,29.15,WNW,297,2.7,2.7,27,0.00,,,0.00,VWS V14.01,2013-01-14 03:51:00,
2013-01-13 21:56:00,10.9,-16.5,29.15,WNW,295,3.1,3.1,27,0.00,,,0.00,VWS V14.01,2013-01-14 03:56:00,
2013-01-13 22:01:00,10.9,-16.5,29.15,WNW,295,2.7,2.7,27,0.00,,,0.00,VWS V14.01,2013-01-14 04:01:00,
2013-01-13 22:06:00,10.8,-16.6,29.15,WNW,295,2.2,2.7,27,0.00,,,0.00,VWS V14.01,2013-01-14 04:06:00,
2013-01-13 22:11:00,10.6,-16.8,29.15,WNW,295,0.0,0.0,27,0.00,,,0.00,VWS V14.01,2013-01-14 04:11:00,
2013-01-13 22:16:00,10.6,-16.8,29.15,WNW,295,0.0,0.0,27,0.00,,,0.00,VWS V14.01,2013-01-14 04:16:00,
2013-01-13 22:21:00,10.4,-17.0,29.15,WNW,295,0.0,0.0,27,0.00,,,0.00,VWS V14.01,2013-01-14 04:21:00,
2013-01-13 22:26:00,10.4,-17.0,29.15,WNW,295,0.0,0.0,27,0.00,,,0.00,VWS V14.01,2013-01-14 04:26:00,
2013-01-13 22:31:00,10.4,-17.0,29.15,WNW,295,0.0,0.0,27,0.00,,,0.00,VWS V14.01,2013-01-14 04:31:00,
2013-01-13 22:36:00,10.0,-17.3,29.15,WNW,295,0.0,0.0,27,0.00,,,0.00,VWS V14.01,2013-01-14 04:36:00,
2013-01-13 22:41:00,10.0,-17.3,29.18,WNW,295,0.0,0.0,27,0.00,,,0.00,VWS V14.01,2013-01-14 04:41:00,
2013-01-13 22:46:00,9.3,-17.9,29.18,WNW,295,0.0,0.0,27,0.00,,,0.00,VWS V14.01,2013-01-14 04:46:00,
2013-01-13 22:51:00,9.3,-17.9,29.18,WNW,295,0.0,0.0,27,0.00,,,0.00,VWS V14.01,2013-01-14 04:51:00,
2013-01-13 22:56:00,8.6,-18.5,29.18,WNW,295,0.0,0.0,27,0.00,,,0.00,VWS V14.01,2013-01-14 04:56:00,
2013-01-13 23:00:00,8.4,-18.7,29.18,WNW,295,0.0,0.0,27,0.00,,,0.00,VWS V14.01,2013-01-14 05:00:00,
2013-01-13 23:01:00,8.4,-18.7,29.18,WNW,295,0.0,0.0,27,0.00,,,0.00,VWS V14.01,2013-01-14 05:01:00,
2013-01-13 23:06:00,8.1,-19.0,29.18,WNW,295,0.0,0.0,27,0.00,,,0.00,VWS V14.01,2013-01-14 05:06:00,
2013-01-13 23:11:00,8.1,-19.0,29.18,WNW,295,0.0,0.0,27,0.00,,,0.00,VWS V14.01,2013-01-14 05:11:00,
2013-01-13 23:16:00,7.9,-19.1,29.18,WNW,295,0.0,0.0,27,0.00,,,0.00,VWS V14.01,2013-01-14 05:16:00,
2013-01-13 23:21:00,7.9,-19.1,29.18,WNW,295,0.0,0.0,27,0.00,,,0.00,VWS V14.01,2013-01-14 05:21:00,
2013-01-13 23:26:00,7.9,-19.1,29.18,WNW,295,0.0,0.0,27,0.00,,,0.00,VWS V14.01,2013-01-14 05:26:00,
2013-01-13 23:31:00,8.6,-18.5,29.18,WNW,295,0.0,0.0,27,0.00,,,0.00,VWS V14.01,2013-01-14 05:31:00,
2013-01-13 23:36:00,8.1,-19.0,29.18,WNW,295,2.7,2.7,27,0.00,,,0.00,VWS V14.01,2013-01-14 05:36:00,
2013-01-13 23:41:00,7.7,-19.3,29.18,WNW,295,0.0,0.0,27,0.00,,,0.00,VWS V14.01,2013-01-14 05:41:00,
2013-01-13 23:46:00,7.7,-19.3,29.18,WNW,295,0.0,0.0,27,0.00,,,0.00,VWS V14.01,2013-01-14 05:46:00,
2013-01-13 23:51:00,7.7,-19.3,29.18,WNW,295,0.0,0.0,27,0.00,,,0.00,VWS V14.01,2013-01-14 05:51:00,
2013-01-13 23:56:00,7.2,-19.8,29.18,WNW,295,0.0,0.0,27,0.00,,,0.00,VWS V14.01,2013-01-14 05:56:00,